Regional Weather Roundup
Issued by NWS Upton, NY

Current Version | Previous Version | Graphics & Text | Print | Product List | Glossary Off
Versions: 1 2 3 4 5 6 7 8 9 10 11 12 13 14 15 16 17 18 19 20 21 22 23 24 25 26 27 28 29 30 31 32 33 34 35 36 37 38 39 40 41 42 43 44 45 46 47 48 49 50

000
ASUS41 KOKX 280507
RWROKX

REGIONAL WEATHER ROUNDUP
NATIONAL WEATHER SERVICE NEW YORK NY
100 AM EDT SAT MAR 28 2015

NOTE: "FAIR" INDICATES FEW OR NO CLOUDS BELOW 12,000 FEET WITH NO
SIGNIFICANT WEATHER AND/OR OBSTRUCTIONS TO VISIBILITY.

NYZ071-072-176-178-NJZ106-104-280600-
NEW YORK CITY METRO AREA


CITY           SKY/WX    TMP DP  RH WIND       PRES   REMARKS
CENTRAL PARK   CLOUDY    40  24  53 N8        29.80F WCI  34
LAGUARDIA APRT CLOUDY    41  25  53 N12G20    29.77F
KENNEDY INTL   CLOUDY    42  24  49 N16       29.78F
NEWARK/LIBERTY MOCLDY    40  25  55 N12G21    29.79F WCI  33
BRNX BOT. GARD   N/A    N/A N/A N/A NW3       29.78F
TETERBORO      CLOUDY    40  25  55 N10       29.78F WCI  33
$$

NYZ177-179-078>081-280600-
LONG ISLAND NEW YORK

CITY           SKY/WX    TMP DP  RH WIND       PRES   REMARKS
FARMINGDALE    CLOUDY    40  26  57 N10       29.76F WCI  33
ISLIP          CLOUDY    39  27  62 N12       29.74F WCI  32
SHIRLEY        CLOUDY    40  27  59 N10       29.77S WCI  33
WESTHAMPTON    CLOUDY    39  29  67 NW9       29.77F WCI  33
MONTAUK POINT    N/A     39  34  82 NW3       29.76S
$$

NYZ052-065-067-280600-
HUDSON VALLEY

CITY           SKY/WX    TMP DP  RH WIND       PRES   REMARKS
WHITE PLAINS   MOCLDY    37  24  59 N14       29.76F WCI  28
NEWBURGH       CLOUDY    36  25  64 VRB6      29.81F WCI  31
MONTGOMERY     CLOUDY    35  24  64 NW5       29.79F WCI  31
POUGHKEEPSIE   PTCLDY    36  22  56 N9        29.81F WCI  29
ALBANY         FLURRIES  32  26  78 NW6       29.87R WCI  26
$$

NJZ001-105-106-008-010-013-015-019>022-104-280600-
NEW JERSEY

CITY           SKY/WX    TMP DP  RH WIND       PRES   REMARKS
NEWARK/LIBERTY MOCLDY    40  25  55 N12G21    29.79F WCI  33
TETERBORO      CLOUDY    40  25  55 N10       29.78F WCI  33
CALDWELL       CLOUDY    38  23  55 VRB5      29.80F WCI  34
MORRISTOWN     CLOUDY    39  25  56 NW6       29.80S WCI  35
SOMERVILLE     MOCLDY    38  24  57 N13G18    29.79F WCI  30
SUSSEX         PTCLDY    33  23  66 VRB5      29.82S WCI  29
ANDOVER          N/A     33  23  66 N6G18     29.81S WCI  28
TRENTON        MOCLDY    38  23  55 N8G17     29.79S WCI  32
MILLVILLE      CLOUDY    41  30  65 N5        29.79S
ATLANTIC CITY  CLOUDY    41  28  60 N12       29.77F
WRIGHTSTOWN    CLOUDY    39  27  62 N12       29.77S WCI  32
TOMS RIVER     CLOUDY    39  27  60 N7        29.78S WCI  34
BELMAR         CLOUDY    39  23  52 NW9       29.77F WCI  33
$$

PAZ047>061-062-071-280600-
EASTERN PENNSYLVANIA

CITY           SKY/WX    TMP DP  RH WIND       PRES   REMARKS
PHILADELPHIA   MOCLDY    41  23  48 N10       29.81S
ALLENTOWN      MOCLDY    35  26  69 N8        29.81F WCI  29
SCRANTON       CLOUDY    31  20  63 N14       29.84S WCI  21
$$

CTZ002-004>006-009-010-012-RIZ004-006-007-MAZ004-011-015-280600-
SOUTHERN NEW ENGLAND
 IN CT

CITY           SKY/WX    TMP DP  RH WIND       PRES   REMARKS
BRADLEY INTL   CLOUDY    38  27  64 NW9       29.78R WCI  31
HARTFORD       CLOUDY    39  27  62 VRB6      29.79R WCI  35
DANBURY        CLOUDY    36  21  54 N6        29.80R WCI  31
WTRBRY/OXFORD  CLOUDY    36  19  51 N10       29.78S WCI  28
BRIDGEPORT     CLOUDY    40  27  59 N10       29.78R WCI  33
MERIDEN        CLOUDY    38  26  62 N6        29.79R WCI  33
NEW HAVEN      CLOUDY    39  26  59 NW8       29.77R WCI  33
CHESTER        CLOUDY    37  30  75 NW12      29.77R WCI  30
GROTON         CLOUDY    41  33  73 N8        29.75S
WILLIMANTIC    CLOUDY    35  31  85 W3        29.77R

 IN RI

CITY           SKY/WX    TMP DP  RH WIND       PRES   REMARKS
PROVIDENCE     CLOUDY    39  37  92 CALM      29.75S FOG
BLOCK ISLAND   CLOUDY    39  36  87 CALM      29.74F
WESTERLY       CLOUDY    39  37  92 CALM      29.75R

 IN MA

CITY           SKY/WX    TMP DP  RH WIND       PRES   REMARKS
BOSTON         CLOUDY    40  36  86 NW6       29.76S
WORCESTER      CLOUDY    37  27  67 N9        29.72F WCI  30
WESTFIELD      CLOUDY    37  27  67 N6        29.77F WCI  32
PROVINCETOWN   CLOUDY    37  34  87 N6        29.74F WCI  33
NANTUCKET      CLOUDY    38  36  92 N7        29.73S WCI  33
$$

ANZ330-335-338-340-345-350-353-355-280600-
COASTAL MARINE OBSERVATIONS


STATION/POSITION TIME  SKY/WX   TEMP    WIND        PRES    VSBY  WAVE
                                AIR SEA DIR/SP/G                  HT/PER
                 (UTC)          (F)     (DEG/KT/KT) (MB)    (MI)  (FT/S)
NY HARB ENTRANCE 0450            41 39  350/  8/ 10 1007.7          3/10
4S FIRE IS       0403               36                N/A           4/11
20S FIRE ISLAND  0350               38              1008.1          4/10
23SW MTP         0450                                 N/A           6/11
HUDSON CANYON    NOT AVBL
EXECUTION ROCKS  NOT AVBL
WESTERN LI SOUND NOT AVBL
CENTRAL LI SOUND NOT AVBL
EASTERN LI SOUND NOT AVBL
ROBBINS REEF     0400            41     340/ 10/ 13 1007.9
$$


>>>>>>>>>>>>>>>>>>>>>>>>>>>> KEY <<<<<<<<<<<<<<<<<<<<<<<<<<<
>                                                          <
>     SKY/WX - SKY CONDITION/PRESENT WEATHER               <
>     TMP    - TEMPERATURE IN FAHRENHEIT                   <
>     DP     - DEWPOINT IN FAHRENHEIT                      <
>     RH     - RELATIVE HUMIDITY IN PERCENT                <
>     WIND   - DIRECTION AND SPEED IN MPH                  <
>     PRES   - MEAN SEA LEVEL PRESSURE IN INCHES OF HG     <
>     WCI    - WIND CHILL INDEX                            <
>     VSB    - VISIBILITY IN MILES                         <
>     HX     - HEAT INDEX                                  <
>     TC     - TEMPERATURE IN CELSIUS                      <
>     VRB    - VARIABLE WIND DIRECTION                     <
>                                                          <
>>>>>>>>>>>>>>>>>>>>>>>>>>>> KEY <<<<<<<<<<<<<<<<<<<<<<<<<<<




USA.gov is the U.S. government's official web portal to all federal, state and local government web resources and services.